Regional Weather Roundup
Issued by NWS

Home | Current Version | Previous Version | Graphics & Text | Print | Product List | Glossary On
Versions: 1 2 3 4 5 6 7 8 9 10 11 12 13 14 15 16 17 18 19 20 21 22 23 24 25 26 27 28 29 30 31 32 33 34 35 36 37 38 39 40 41 42 43 44 45 46 47 48 49 50
945
ASUS43 KLOT 231604
RWRIL

ILLINOIS REGIONAL WEATHER ROUNDUP
NATIONAL WEATHER SERVICE CHICAGO/ROMEOVILLE IL
1100 AM CDT TUE MAY 23 2017

NOTE: "FAIR" INDICATES FEW OR NO CLOUDS BELOW 12,000 FEET WITH NO
SIGNIFICANT WEATHER AND/OR OBSTRUCTIONS TO VISIBILITY.

* THESE STATIONS ARE NOT UNDER NWS QUALITY CONTROL. THEY ALSO MAY NOT
  REPORT WEATHER SUCH AS PRECIPITATION OR FOG.

ILZ001-002-007-009-015-016-024-231700-
NORTHWEST ILLINOIS

CITY           SKY/WX    TMP DP  RH WIND       PRES   REMARKS
MOLINE         CLOUDY    61  53  75 W6        29.78S
STERLING*      CLOUDY    59  55  87 VRB6      29.79F
SAVANNA*       CLOUDY    59  53  79 SW3       29.78F
$$

ILZ003-004-008-010-011-017-018-231700-
NORTH CENTRAL ILLINOIS

CITY           SKY/WX    TMP DP  RH WIND       PRES   REMARKS
ROCKFORD       CLOUDY    62  54  74 S15       29.79F
FREEPORT*      CLOUDY    59  52  79 SW9       29.79S
ROCHELLE*      CLOUDY    60  54  82 S16       29.80S
DE KALB*       LGT RAIN  59  56  88 S12       29.80F
PERU*          LGT RAIN  56  53  91 SW7       29.80F
$$

ILZ005-006-012>014-019>023-231700-
NORTHEAST ILLINOIS

CITY           SKY/WX    TMP DP  RH WIND       PRES   REMARKS
CHICAGO-OHARE  CLOUDY    60  54  80 SW5       29.79F
CHICAGO-MIDWAY CLOUDY    60  54  80 SW7       29.80F
AURORA         RAIN      59  56  89 SW8       29.80F FOG
LANSING*       LGT RAIN  61  57  89 W3        29.82F
WAUKEGAN       CLOUDY    61  54  77 SW10      29.78F
DUPAGE AIRPORT CLOUDY    58  55  90 SW9       29.79F
KANKAKEE*      LGT RAIN  62  56  79 CALM      29.82F
WHEELING       CLOUDY    60  55  83 SW7       29.80F
MORRIS*        LGT RAIN  59  55  87 CALM      29.80S
ROMEOVILLE*    RAIN      59  57  92 SW3       29.81F
NORTHERLY ISL    N/A     59  53  80 SW6         N/A
$$

LMZ740>746-231700-
SOUTHERN LAKE MICHIGAN

STATION/POSITION SKY/WX   TEMP    WIND        PRES    VSBY  WAVE
                          AIR SEA DIR/SP/G                  HT/PER
                          (F)     (DEG/KT/KT) (MB)    (MI)  (FT/S)
SOUTHERN BUOY              48 45  180/ 10/ 12 1009.6          1
WILMETTE HARBOR            56 53                N/A           1/ 2
HARRISON CRIB              60     220/  6/  7   N/A
BURNHAM HARBOR             59     190/  6/  9   N/A
CALUMET HARBOR             59     220/  4/  7 1009.4F
BURNS HARBOR               58     280/  4/  4 1010.5S
MICHIGAN CITY              57     230/  6/  7   N/A
MICHIGAN CITY 6N           55 53  260/  6/  6   N/A           1
ST. JOSEPH                 56 56  240/  6/  8 1010.6S         1/ 3
$$

ILZ025>027-034>036-040-047-049-050-058-095>099-231700-
WEST-CENTRAL ILLINOIS

CITY           SKY/WX    TMP DP  RH WIND       PRES   REMARKS
QUINCY         LGT RAIN  58  57  97 W5        29.79F FOG
GALESBURG*     CLOUDY    57  56  95 SW6       29.78F
MACOMB*        LGT RAIN  58  57  96 W9        29.81F
JACKSONVILLE*  CLOUDY    57  55  92 CALM      29.80S
PITTSFIELD*    HVY RAIN  58  57  95 NW3       29.81S
$$

ILZ028>032-037-038-041>044-048-051>054-059>061-231700-
CENTRAL ILLINOIS

CITY           SKY/WX    TMP DP  RH WIND       PRES   REMARKS
PONTIAC        LGT RAIN  59  58  95 CALM      29.81F
BLOOMINGTON    CLOUDY    61  55  81 VRB6      29.81F
DECATUR        PTSUNNY   65  55  70 E7        29.79F
PEORIA         LGT RAIN  57  57 100 S6        29.80F
LACON*         DRIZZLE   57  56  95 CALM      29.79F
LINCOLN*       CLOUDY    60  56  86 CALM      29.80F
SPRINGFIELD    CLOUDY    61  57  87 NE7       29.80F
TAYLORVILLE    CLOUDY    65  55  69 NE3       29.78F
$$

ILZ033-039-045-046-055>057-062-063-231700-
EAST-CENTRAL ILLINOIS

CITY           SKY/WX    TMP DP  RH WIND       PRES   REMARKS
CHAMPAIGN      CLOUDY    65  54  67 E6        29.80F
RANTOUL*       LGT RAIN  66  56  70 E3        29.80F
MATTOON        CLOUDY    67  55  65 S6        29.79F
PARIS*         CLOUDY    69  53  56 SE5       29.80F
$$

ILZ079-100>102-231700-
SOUTHWEST ILLINOIS

CITY           SKY/WX    TMP DP  RH WIND       PRES   REMARKS
ALTON          CLOUDY    68  52  56 CALM      29.77F
BELLEVILLE     MOSUNNY   70  55  59 SW6       29.77F
CAHOKIA*       CLOUDY    72  52  49 VRB3      29.76F
SPARTA*        MOSUNNY   70  54  56 W5        29.77F
$$

ILZ064>066-069>071-074>076-080>082-084>086-088>090-092>094-231700-
SOUTH-CENTRAL ILLINOIS

CITY           SKY/WX    TMP DP  RH WIND       PRES   REMARKS
CARBONDALE     MOSUNNY   72  55  55 SW8       29.77F
CAIRO*         SUNNY     71  56  59 W5        29.77F
EFFINGHAM*     CLOUDY    68  57  68 E3        29.80F
MARION         PTSUNNY   72  55  56 S6        29.78F
MT. VERNON       N/A     71  53  52 CALM      29.77F
SALEM*         MOSUNNY   70  52  53 CALM      29.78F
$$

ILZ067-068-072-073-078-083-087-091-231700-
SOUTHEAST ILLINOIS

CITY           SKY/WX    TMP DP  RH WIND       PRES   REMARKS
LAWRENCEVILLE  SUNNY     70  50  49 SE6       29.79F
FLORA*         CLOUDY    70  55  57 SE5       29.78F
FAIRFIELD*     MOSUNNY   70  54  56 SE5       29.76F
HARRISBURG*    MOSUNNY   71  53  52 W5        29.78F
ROBINSON*      SUNNY     69  50  50 S5        29.80F
CARMI*         SUNNY     72  52  49 CALM      29.77F
$$

ABBREVIATIONS USED IN REMARKS
   TC - TEMPERATURE IN CELSIUS
  WCI - WIND CHILL INDEX
   HX - HEAT INDEX
  VSB - VISIBILITY
$$





USA.gov is the U.S. government's official web portal to all federal, state and local government web resources and services.